KD2RHT-13 Weather Reports


Display with metric or nautical units.
time (UTC)temp
F
wind
direction
speed
MPH
gust
MPH
rain 1hr
in
rain 24hr
in
rain mn
in
humidity
%
barometer
mb
20260508101956 39 161 0.0 0.0 0.00 0.02 0.02 99 1013.5
20260508101454 39 152 0.0 0.0 0.00 0.02 0.02 99 1013.5
20260508100951 39 159 0.0 0.0 0.00 0.02 0.02 99 1013.9
20260508100450 39 161 0.0 0.0 0.00 0.02 0.02 99 1013.5
20260508095945 39 154 0.0 0.0 0.00 0.02 0.02 99 1013.1
20260508095443 38 163 0.0 0.0 0.00 0.02 0.02 99 1013.5
20260508094940 38 160 0.0 0.0 0.00 0.02 0.02 99 1013.5
20260508094436 38 159 0.0 0.0 0.00 0.02 0.02 99 1013.1
20260508093933 38 161 0.0 0.0 0.00 0.02 0.02 99 1013.5
20260508093431 37 159 0.0 0.0 0.00 0.02 0.02 99 1012.7
20260508092928 37 159 0.0 0.0 0.00 0.02 0.02 99 1013.1
20260508092426 38 159 0.0 0.0 0.00 0.02 0.02 99 1013.1
20260508091924 38 159 0.0 0.0 0.00 0.02 0.02 99 1013.1
20260508091421 39 159 0.0 0.0 0.00 0.02 0.02 99 1013.1
20260508090918 39 161 0.0 0.0 0.00 0.02 0.02 99 1013.1
20260508090417 38 158 0.0 0.0 0.00 0.02 0.02 99 1013.1
20260508085911 38 158 0.0 0.0 0.00 0.02 0.02 99 1013.1
20260508085409 38 158 0.0 0.0 0.00 0.02 0.02 99 1013.1
20260508084905 39 159 0.0 0.0 0.00 0.02 0.02 99 1013.1
20260508084402 39 161 0.0 0.0 0.00 0.02 0.02 99 1013.1
20260508083900 39 161 0.0 0.0 0.00 0.02 0.02 99 1013.1
20260508083357 40 162 0.0 0.0 0.00 0.02 0.02 99 1013.1
20260508082856 40 159 0.0 0.0 0.00 0.02 0.02 98 1013.1
20260508082354 40 158 0.0 0.0 0.00 0.02 0.02 98 1013.1
20260508081852 41 155 0.0 0.0 0.00 0.02 0.02 98 1012.7
20260508081348 41 158 0.0 0.0 0.00 0.02 0.02 97 1013.1
20260508080846 41 164 0.0 0.0 0.00 0.02 0.02 97 1012.7
20260508080343 41 160 0.0 0.0 0.00 0.02 0.02 97 1012.7
20260508075839 41 162 0.0 0.0 0.00 0.02 0.02 97 1013.1
20260508075336 41 166 0.0 0.0 0.00 0.02 0.02 97 1013.1
20260508074835 41 188 0.0 0.0 0.00 0.02 0.02 97 1013.1
20260508074331 41 155 0.0 0.0 0.00 0.02 0.02 97 1013.1
20260508073828 41 158 0.0 0.0 0.00 0.02 0.02 97 1013.1
20260508073326 42 178 0.0 0.0 0.00 0.02 0.02 97 1013.1
20260508072822 42 165 0.0 0.0 0.00 0.02 0.02 97 1013.5
20260508072319 42 167 0.0 1.0 0.00 0.02 0.02 97 1013.1
20260508071816 42 158 0.0 0.0 0.00 0.02 0.02 96 1013.1
20260508071315 42 150 0.0 0.0 0.00 0.02 0.02 96 1013.5
20260508070811 42 155 0.0 0.0 0.00 0.02 0.02 96 1013.1
20260508070310 42 164 0.0 0.0 0.00 0.02 0.02 96 1013.1
20260508065807 41 164 0.0 0.0 0.00 0.02 0.02 95 1013.1
20260508065307 41 159 0.0 0.0 0.00 0.02 0.02 95 1013.5
20260508064803 41 144 0.0 0.0 0.00 0.02 0.02 95 1013.1
20260508064300 41 159 0.0 0.0 0.00 0.02 0.02 95 1013.1
20260508063757 42 159 0.0 0.0 0.00 0.02 0.02 94 1013.1
20260508063256 42 162 0.0 0.0 0.00 0.02 0.02 94 1013.5
20260508062752 42 158 0.0 0.0 0.05 0.02 0.02 93 1013.5
20260508062250 42 160 0.0 0.0 0.05 0.02 0.02 93 1013.5
20260508061746 42 164 1.0 1.0 0.07 0.01 0.01 91 1013.1
20260508061244 42 263 3.0 3.0 0.07 0.01 0.01 90 1013.9
20260508060740 43 223 0.0 1.0 0.00 0.00 0.00 88 1013.1
20260508060238 44 185 2.0 3.0 0.00 0.00 0.00 86 1013.5
20260508055734 44 152 2.0 3.0 0.00 0.00 0.00 82 1013.5
20260508055231 44 159 2.0 2.0 0.00 0.00 0.00 81 1013.1
20260508054727 44 165 1.0 2.0 0.00 0.00 0.00 80 1013.1
20260508054225 44 281 3.0 3.0 0.00 0.00 0.00 80 1013.1
20260508053722 44 192 2.0 3.0 0.00 0.00 0.00 78 1012.7
20260508053219 44 268 4.0 6.0 0.00 0.00 0.00 77 1013.1
20260508052716 44 170 0.0 1.0 0.00 0.00 0.00 77 1013.1
20260508052213 44 166 1.0 1.0 0.00 0.00 0.00 76 1012.7
20260508051709 44 169 0.0 0.0 0.00 0.00 0.00 76 1012.7
20260508051205 44 160 0.0 0.0 0.00 0.00 0.00 77 1012.7
20260508050701 44 160 0.0 0.0 0.00 0.00 0.00 76 1012.7
20260508050159 44 171 0.0 0.0 0.00 0.00 0.00 76 1012.7
20260508045654 44 182 0.0 0.0 0.00 0.00 0.00 76 1012.7
20260508045153 44 158 0.0 0.0 0.00 0.00 0.00 77 1013.1
20260508044650 44 164 0.0 0.0 0.00 0.00 0.00 77 1012.7
20260508044146 44 154 0.0 0.0 0.00 0.00 0.00 77 1013.1
20260508043642 44 172 0.0 1.0 0.00 0.00 0.00 78 1012.7
20260508043140 43 159 0.0 0.0 0.00 0.00 0.00 79 1013.1
20260508042637 43 157 0.0 0.0 0.00 0.00 0.00 79 1012.7
20260508042134 43 154 0.0 0.0 0.00 0.00 0.00 79 1012.7
20260508041630 44 170 0.0 0.0 0.00 0.00 0.00 79 1012.7
20260508041127 44 161 0.0 0.0 0.00 0.00 0.00 78 1012.7
20260508040623 43 162 0.0 0.0 0.00 0.00 0.00 78 1012.7
20260508040121 43 157 0.0 0.0 0.00 0.00 0.00 78 1012.7
20260508035618 43 164 0.0 0.0 0.00 0.00 0.00 78 1012.7
20260508035115 42 160 0.0 0.0 0.00 0.00 0.00 79 1012.7
20260508034612 42 159 0.0 0.0 0.00 0.00 0.00 80 1012.4
20260508034109 41 156 0.0 0.0 0.00 0.00 0.00 81 1012.4
20260508033607 41 161 0.0 0.0 0.00 0.00 0.00 81 1012.4
20260508033105 41 161 0.0 0.0 0.00 0.00 0.00 80 1012.1
20260508032601 41 158 0.0 0.0 0.00 0.00 0.00 79 1012.4
20260508032059 41 158 0.0 0.0 0.00 0.00 0.00 79 1012.4
20260508031555 41 158 0.0 0.0 0.00 0.00 0.00 78 1012.4
20260508031051 41 158 0.0 0.0 0.00 0.00 0.00 77 1012.4
20260508030548 42 158 0.0 0.0 0.00 0.00 0.00 76 1012.4
20260508030046 42 159 0.0 0.0 0.00 0.00 0.00 75 1012.4
20260508025542 43 158 0.0 0.0 0.00 0.00 0.00 74 1012.1
20260508025039 43 161 0.0 0.0 0.00 0.00 0.00 72 1012.4
20260508024535 43 157 0.0 0.0 0.00 0.00 0.00 72 1012.4
20260508024032 44 158 0.0 0.0 0.00 0.00 0.00 70 1012.1
20260508023528 44 135 0.0 0.0 0.00 0.00 0.00 69 1012.1
20260508023026 44 170 0.0 0.0 0.00 0.00 0.00 70 1012.1
20260508022522 43 162 0.0 0.0 0.00 0.00 0.00 70 1012.1
20260508022019 44 158 0.0 0.0 0.00 0.00 0.00 70 1012.1
20260508021515 44 156 0.0 0.0 0.00 0.00 0.00 69 1012.4
20260508021011 44 160 0.0 0.0 0.00 0.00 0.00 67 1012.1
20260508020509 44 160 0.0 0.0 0.00 0.00 0.00 67 1012.1
20260508020006 45 160 0.0 0.0 0.00 0.00 0.00 66 1012.4
20260508015503 45 160 0.0 0.0 0.00 0.00 0.00 66 1012.4
20260508015000 45 160 0.0 0.0 0.00 0.00 0.00 64 1012.4
20260508014456 45 158 0.0 0.0 0.00 0.00 0.00 64 1012.4
20260508013953 46 158 0.0 0.0 0.00 0.00 0.00 64 1012.4
20260508013448 46 153 0.0 0.0 0.00 0.00 0.00 63 1012.4
20260508012946 46 160 0.0 0.0 0.00 0.00 0.00 62 1012.1
20260508012443 46 164 0.0 0.0 0.00 0.00 0.00 62 1012.1
20260508011940 47 160 0.0 0.0 0.00 0.00 0.00 62 1012.4
20260508011438 47 162 0.0 0.0 0.00 0.00 0.00 61 1012.4
20260508010936 47 160 0.0 0.0 0.00 0.00 0.00 60 1012.4
20260508010432 48 163 0.0 0.0 0.00 0.00 0.00 59 1012.1
20260508005930 48 160 0.0 0.0 0.00 0.00 0.00 60 1012.1
20260508005426 48 161 0.0 0.0 0.00 0.00 0.00 58 1012.1
20260508004923 48 168 0.0 0.0 0.00 0.00 0.00 58 1012.1
20260508004419 48 160 0.0 0.0 0.00 0.00 0.00 59 1012.1
20260508003916 48 164 0.0 0.0 0.00 0.00 0.00 58 1012.1
20260508003413 48 159 0.0 0.0 0.00 0.00 0.00 58 1012.1
20260508002910 49 163 0.0 0.0 0.00 0.00 0.00 57 1011.7
20260508002406 49 154 0.0 0.0 0.00 0.00 0.00 58 1011.7
20260508001902 49 164 0.0 0.0 0.00 0.00 0.00 56 1012.1
20260508001359 49 157 0.0 0.0 0.00 0.00 0.00 56 1012.1
20260508000855 49 153 0.0 0.0 0.00 0.00 0.00 55 1011.7
20260508000352 50 155 0.0 0.0 0.00 0.00 0.00 55 1011.7
20260507235848 50 168 0.0 0.0 0.00 0.00 0.00 54 1011.7
20260507235346 50 218 1.0 2.0 0.00 0.00 0.00 53 1011.7
20260507234843 50 165 0.0 0.0 0.00 0.00 0.00 54 1011.7
20260507234339 50 169 0.0 1.0 0.00 0.00 0.00 53 1011.7
20260507233836 50 151 2.0 2.0 0.00 0.00 0.00 53 1011.4
20260507233333 50 190 0.0 0.0 0.00 0.00 0.00 54 1011.4
20260507232832 50 177 0.0 1.0 0.00 0.00 0.00 53 1011.7
20260507232327 51 169 0.0 0.0 0.00 0.00 0.00 51 1011.7
20260507231825 51 160 0.0 1.0 0.00 0.00 0.00 51 1011.4
20260507231321 51 205 3.0 3.0 0.00 0.00 0.00 49 1011.4
20260507230818 51 237 2.0 2.0 0.00 0.00 0.00 50 1011.7
20260507230316 51 328 2.0 3.0 0.00 0.00 0.00 48 1011.7
20260507225815 51 220 2.0 3.0 0.00 0.00 0.00 50 1011.7
20260507225312 51 219 1.0 1.0 0.00 0.00 0.00 50 1011.4
20260507224808 51 130 1.0 2.0 0.00 0.00 0.00 48 1011.7
20260507224304 51 8 4.0 5.0 0.00 0.00 0.00 48 1011.7
20260507223801 52 169 1.0 2.0 0.00 0.00 0.00 48 1011.7
20260507223257 52 83 3.0 6.0 0.00 0.00 0.00 47 1011.7
20260507222754 52 220 3.0 3.0 0.00 0.00 0.00 46 1011.7
20260507222250 52 211 6.0 11.0 0.00 0.00 0.00 46 1011.7
20260507221748 53 236 4.0 7.0 0.00 0.00 0.00 46 1011.4
20260507221244 53 236 3.0 5.0 0.00 0.00 0.00 45 1011.7
20260507220740 53 257 2.0 3.0 0.00 0.00 0.00 46 1011.7
20260507220239 53 262 2.0 2.0 0.00 0.00 0.00 45 1011.4
20260507215734 53 185 2.0 3.0 0.00 0.00 0.00 45 1011.4
20260507215232 53 200 3.0 3.0 0.00 0.00 0.00 45 1011.4
20260507214729 53 200 2.0 3.0 0.00 0.00 0.00 45 1011.4
20260507214226 53 248 4.0 6.0 0.00 0.00 0.00 45 1011.7
20260507213721 53 227 3.0 5.0 0.00 0.00 0.00 46 1011.7
20260507213219 54 60 4.0 8.0 0.00 0.00 0.00 46 1011.7
20260507212715 54 208 3.0 5.0 0.00 0.00 0.00 48 1011.7
20260507212212 53 178 4.0 8.0 0.00 0.00 0.00 47 1011.7
20260507211708 53 204 3.0 3.0 0.00 0.00 0.00 49 1011.4
20260507211204 53 247 5.0 6.0 0.00 0.00 0.00 49 1011.4
20260507210702 54 196 5.0 6.0 0.00 0.00 0.00 48 1011.7
20260507210158 54 290 5.0 6.0 0.00 0.00 0.00 47 1011.7
20260507205655 54 341 2.0 3.0 0.00 0.00 0.00 48 1011.4
20260507205151 53 273 3.0 5.0 0.00 0.00 0.00 47 1011.7
20260507204647 53 147 2.0 3.0 0.00 0.00 0.00 47 1011.4
20260507204146 54 253 3.0 3.0 0.00 0.00 0.00 46 1011.7
20260507203643 54 10 7.0 10.0 0.00 0.00 0.00 44 1011.4
20260507203140 55 212 2.0 2.0 0.00 0.00 0.00 47 1011.7
20260507202636 55 299 3.0 3.0 0.00 0.00 0.00 48 1011.7
20260507202132 55 267 5.0 8.0 0.00 0.00 0.00 46 1011.4
20260507201627 55 303 4.0 6.0 0.00 0.00 0.00 50 1011.7
20260507201125 57 216 4.0 7.0 0.00 0.00 0.00 49 1011.7
20260507200621 56 210 3.0 3.0 0.00 0.00 0.00 48 1011.7
20260507200117 56 229 5.0 5.0 0.00 0.00 0.00 48 1011.7
20260507195614 55 256 4.0 6.0 0.00 0.00 0.00 48 1012.1
20260507195111 56 255 5.0 6.0 0.00 0.00 0.00 48 1011.7
20260507194608 56 262 3.0 5.0 0.00 0.00 0.00 48 1011.7
20260507194103 56 201 1.0 2.0 0.00 0.00 0.00 49 1012.1
20260507193600 57 224 4.0 5.0 0.00 0.00 0.00 51 1012.1
20260507193057 57 155 2.0 5.0 0.00 0.00 0.00 49 1012.1
20260507192553 56 251 3.0 3.0 0.00 0.00 0.00 46 1012.1
20260507192051 57 36 7.0 9.0 0.00 0.00 0.00 45 1012.1
20260507191546 56 256 6.0 8.0 0.00 0.00 0.00 45 1012.1
20260507191043 55 229 4.0 6.0 0.00 0.00 0.00 45 1012.1
20260507190540 57 244 6.0 8.0 0.00 0.00 0.00 48 1012.4
20260507190039 57 203 4.0 5.0 0.00 0.00 0.00 49 1012.1
20260507185537 57 229 1.0 2.0 0.00 0.00 0.00 52 1012.1
20260507185033 55 157 2.0 2.0 0.00 0.00 0.00 53 1012.4
20260507184532 55 176 1.0 1.0 0.00 0.00 0.00 54 1012.4
20260507184029 54 269 3.0 3.0 0.00 0.00 0.00 56 1012.4
20260507183525 53 178 1.0 1.0 0.00 0.00 0.00 56 1012.7
20260507183022 55 264 6.0 7.0 0.00 0.00 0.00 53 1012.4
20260507182518 55 188 1.0 2.0 0.00 0.00 0.00 58 1012.4
20260507182014 55 144 5.0 9.0 0.00 0.00 0.00 54 1012.7
20260507181512 55 331 5.0 7.0 0.00 0.00 0.00 55 1012.4
20260507181008 55 308 5.0 8.0 0.00 0.00 0.00 54 1012.4
20260507180504 55 254 2.0 3.0 0.00 0.00 0.00 55 1012.7
20260507180000 55 165 1.0 1.0 0.00 0.00 0.00 57 1012.7
20260507175457 56 277 2.0 3.0 0.00 0.00 0.00 58 1012.7
20260507174955 57 177 1.0 2.0 0.00 0.00 0.00 57 1012.7
20260507174452 56 187 2.0 2.0 0.00 0.00 0.00 57 1012.7
20260507173949 57 259 2.0 2.0 0.00 0.00 0.00 59 1012.7
20260507173446 56 194 3.0 3.0 0.00 0.00 0.00 60 1013.1
20260507172943 56 218 2.0 3.0 0.00 0.00 0.00 57 1013.1
20260507172439 55 138 1.0 1.0 0.00 0.00 0.00 61 1013.1
20260507171936 54 201 1.0 1.0 0.00 0.00 0.00 62 1013.1
20260507171432 55 176 1.0 2.0 0.00 0.00 0.00 57 1013.1
20260507170930 55 191 2.0 2.0 0.00 0.00 0.00 65 1013.1
20260507170426 55 109 0.0 0.0 0.00 0.00 0.00 60 1013.1
20260507165922 53 153 1.0 2.0 0.00 0.00 0.00 65 1013.1
20260507165418 55 337 3.0 3.0 0.00 0.00 0.00 61 1013.1
20260507164914 55 196 3.0 5.0 0.00 0.00 0.00 63 1013.5
20260507164411 55 178 2.0 5.0 0.00 0.00 0.00 61 1013.5
20260507163909 52 172 0.0 1.0 0.00 0.00 0.00 66 1013.5
20260507163406 52 98 0.0 1.0 0.00 0.00 0.00 64 1013.5
20260507162902 53 160 2.0 2.0 0.00 0.00 0.00 60 1013.5
20260507162357 53 223 2.0 2.0 0.00 0.00 0.00 61 1013.5
20260507161855 54 183 3.0 3.0 0.00 0.00 0.00 62 1013.9
20260507161351 54 201 3.0 3.0 0.00 0.00 0.00 63 1013.9
20260507160848 52 155 0.0 1.0 0.00 0.00 0.00 62 1013.9
20260507160343 52 132 1.0 1.0 0.00 0.00 0.00 62 1013.9
20260507155840 53 332 2.0 2.0 0.00 0.00 0.00 61 1013.9
20260507155336 52 120 2.0 2.0 0.00 0.00 0.00 62 1013.9
20260507154833 52 204 1.0 2.0 0.00 0.00 0.00 60 1013.9
20260507154330 51 160 1.0 2.0 0.00 0.00 0.00 63 1014.2
20260507153827 52 140 1.0 1.0 0.00 0.00 0.00 58 1014.2
20260507153324 51 248 2.0 3.0 0.00 0.00 0.00 60 1014.2
20260507152820 51 182 0.0 1.0 0.00 0.00 0.00 61 1014.2
20260507152317 51 275 2.0 2.0 0.00 0.00 0.00 61 1014.2
20260507151813 51 257 2.0 3.0 0.00 0.00 0.00 61 1014.2
20260507151309 51 330 2.0 3.0 0.00 0.00 0.00 60 1014.5
20260507150806 51 332 5.0 6.0 0.00 0.00 0.00 63 1014.5
20260507150303 51 191 1.0 1.0 0.00 0.00 0.00 63 1014.5
20260507145759 49 129 1.0 1.0 0.00 0.00 0.00 62 1014.5
20260507145255 48 162 0.0 1.0 0.00 0.00 0.00 67 1014.5
20260507144752 47 134 1.0 1.0 0.00 0.00 0.00 64 1014.5
20260507144250 46 219 2.0 2.0 0.00 0.00 0.00 65 1014.5
20260507143746 47 284 3.0 5.0 0.00 0.00 0.00 63 1014.9
20260507143244 47 154 1.0 2.0 0.00 0.00 0.00 66 1014.9
20260507142740 47 289 2.0 2.0 0.00 0.00 0.00 65 1014.9
20260507142236 47 186 1.0 1.0 0.00 0.00 0.00 66 1014.5
20260507141732 47 187 1.0 1.0 0.00 0.00 0.00 66 1014.9
20260507141230 47 238 5.0 7.0 0.00 0.00 0.00 66 1014.5
20260507140726 47 297 2.0 5.0 0.00 0.00 0.00 67 1014.5
20260507140224 47 316 4.0 6.0 0.00 0.00 0.00 64 1014.5
20260507135720 46 133 1.0 1.0 0.00 0.00 0.00 67 1014.5
20260507135218 46 268 4.0 5.0 0.00 0.00 0.00 66 1014.9
20260507134714 46 186 0.0 1.0 0.00 0.00 0.00 67 1014.9
20260507134210 47 178 2.0 3.0 0.00 0.00 0.00 66 1014.5
20260507133706 47 194 3.0 5.0 0.00 0.00 0.00 66 1014.5
20260507133203 47 142 0.0 1.0 0.00 0.00 0.00 69 1014.5
20260507132701 47 166 2.0 3.0 0.00 0.00 0.00 68 1014.5
20260507132157 47 198 2.0 3.0 0.00 0.00 0.00 68 1014.5
20260507131654 47 183 1.0 2.0 0.00 0.00 0.00 70 1014.2
20260507131151 47 55 1.0 2.0 0.00 0.00 0.00 71 1014.9
20260507130648 48 148 1.0 1.0 0.00 0.00 0.00 69 1014.5
20260507130146 47 243 3.0 5.0 0.00 0.00 0.00 69 1014.5
20260507125644 47 221 1.0 1.0 0.00 0.00 0.00 69 1014.5
20260507125142 48 141 2.0 2.0 0.00 0.00 0.00 71 1014.5
20260507124637 47 218 3.0 5.0 0.00 0.00 0.00 70 1014.2
20260507124135 47 201 1.0 2.0 0.00 0.00 0.00 73 1014.5
20260507123633 46 288 3.0 3.0 0.00 0.00 0.00 75 1014.5
20260507123130 46 181 1.0 2.0 0.00 0.00 0.00 75 1014.5
20260507122626 46 247 0.0 1.0 0.00 0.00 0.00 77 1014.5
20260507122121 45 174 0.0 0.0 0.00 0.00 0.00 79 1014.5
20260507121618 45 203 2.0 2.0 0.00 0.00 0.00 79 1014.9
20260507121114 45 200 1.0 1.0 0.00 0.00 0.00 81 1014.2
20260507120610 44 152 1.0 2.0 0.00 0.00 0.00 83 1014.5
20260507120107 43 245 1.0 2.0 0.00 0.00 0.00 83 1014.5
20260507115603 43 154 1.0 2.0 0.00 0.00 0.00 84 1014.2
20260507115059 43 167 1.0 1.0 0.00 0.00 0.00 84 1014.2
20260507114555 44 200 1.0 2.0 0.00 0.00 0.00 83 1014.2
20260507114052 43 314 2.0 2.0 0.00 0.00 0.00 85 1014.2
20260507113549 43 222 3.0 5.0 0.00 0.00 0.00 85 1014.5
20260507113046 43 157 0.0 0.0 0.00 0.00 0.00 87 1013.9
20260507112544 43 138 0.0 0.0 0.00 0.00 0.00 86 1014.2
20260507112041 43 153 0.0 0.0 0.00 0.00 0.00 88 1014.2
20260507111538 42 154 0.0 0.0 0.00 0.00 0.00 90 1014.5
20260507111035 40 151 0.0 0.0 0.00 0.00 0.00 92 1014.2
20260507110531 40 150 0.0 0.0 0.00 0.00 0.00 92 1014.2
20260507110027 39 157 0.0 0.0 0.00 0.00 0.00 94 1014.2
20260507105525 38 152 0.0 0.0 0.00 0.00 0.00 95 1013.9
20260507105020 37 154 0.0 0.0 0.00 0.00 0.00 95 1014.2
20260507104518 36 158 0.0 0.0 0.00 0.00 0.00 96 1013.9
20260507104015 36 152 0.0 0.0 0.00 0.00 0.00 96 1013.5
20260507103511 35 150 0.0 0.0 0.00 0.00 0.00 96 1013.9
20260507103007 35 154 0.0 0.0 0.00 0.00 0.00 96 1014.2
20260507102504 34 155 0.0 0.0 0.00 0.00 0.00 95 1013.9